Orbital Elements at Epoch 2459000.5 (2020-May-31.0) TDB
Reference: JPL 24 (heliocentric ecliptic J2000)
Element | Value | Uncertainty (1-sigma) | Units |
e | .1724459226229733 | 3.2756e-08 | |
a | 3.11901631055628 | 1.6463e-08 | au |
q | 2.5811546652063 | 9.8921e-08 | au |
i | 1.050895350670351 | 3.8443e-06 | deg |
node | 159.6548362621566 | 0.00019233 | deg |
peri | 108.2477439213306 | 0.00019272 | deg |
M | 18.70396080485074 | 1.0806e-05 | deg |
tp | 2458895.966382805332 (2020-Feb-16.46638281) | 6.0456e-05 | TDB |
period | 2011.985727660474 5.51 | 1.593e-05 4.361e-08 | d yr |
n | .1789277105949484 | 1.4167e-09 | deg/d |
Q | 3.656877955906261 | 1.9302e-08 | au |
|
| | Orbit Determination Parameters
Additional Information
|